Home   Weather   Key West   Past weeks

Flag for USA Past Weather in Key West, Florida, USA — Yesterday and Last 2 Weeks

Now
71 °F

Clear.


Feels Like: 69 °F
Forecast: 67 / 76 °F
Wind: 7 mph from Northwest

Location: Key West International Airport

Current Time: Feb 25, 2017 at 12:02:17 am

Latest Report: Feb 24, 2017 at 10:53 pm


Visibility: 10 mi

Pressure: 29.88 "Hg

Humidity: 87%

Dew Point: 67 °F

Location of Key WestLocation

Past Weather in Key West — Graph

°F

Key West Temperature Yesterday

Maximum temperature yesterday: 78 °F (at 12:58 pm)
Minimum temperature yesterday: 70 °F (at 2:53 am)
Average temperature yesterday: 73 °F

High & Low Weather Summary for the Past Weeks

 TemperatureHumidityPressure
High81 °F (Feb 15, 1:53 pm)97% (Feb 22, 12:27 pm)30.31 "Hg (Feb 22, 12:27 pm)
Low66 °F (Feb 14, 5:53 am)54% (Feb 12, 12:53 pm)29.66 "Hg (Feb 23, 3:53 am)
Average74 °F77%29.99 "Hg
* Reported Feb 9 10:53 pm — Feb 24 10:53 pm, Key West, Weather by CustomWeather, © 2017

Note: Actual official high and low records may vary slightly from our data, if they occured in-between our weather recording intervals... More about our weather records

Advertising

Key West Weather History for the Previous 24 Hours

Scroll right to see more
 ConditionsComfort  
Time TempWeatherWind HumidityBarometerVisibility
10:53 pm
Fri, Feb 24
71 °FClear.7 mph87%29.88 "Hg10 mi
9:53 pm71 °FClear.3 mph87%29.87 "Hg10 mi
8:53 pm72 °FClear.6 mph84%29.86 "Hg10 mi
8:05 pm73 °FPassing clouds.6 mph81%29.85 "Hg10 mi
7:53 pm72 °FPassing clouds.6 mph81%29.84 "Hg10 mi
6:53 pm73 °FPassing clouds.7 mph81%29.82 "Hg10 mi
6:25 pm73 °FScattered clouds.8 mph84%29.82 "Hg10 mi
6:17 pm73 °FPartly sunny.6 mph81%29.82 "Hg10 mi
5:53 pm75 °FScattered clouds.8 mph79%29.81 "Hg10 mi
4:53 pm75 °FScattered clouds.9 mph79%29.80 "Hg10 mi
4:14 pm76 °FScattered clouds.8 mph77%29.79 "Hg10 mi
3:53 pm75 °FPartly sunny.8 mph79%29.79 "Hg10 mi
2:53 pm74 °FOvercast.8 mph79%29.80 "Hg10 mi
2:00 pm76 °FPartly sunny.6 mph74%29.81 "Hg10 mi
12:58 pm78 °FScattered clouds.8 mph69%29.81 "Hg10 mi
12:31 pm76 °FPartly sunny.5 mph72%29.82 "Hg10 mi
11:53 am77 °FPassing clouds.5 mph71%29.84 "Hg10 mi
10:53 am77 °FSunny.8 mph71%29.84 "Hg10 mi
9:53 am76 °FSunny.10 mph74%29.84 "Hg10 mi
8:53 am74 °FSunny.9 mph79%29.82 "Hg10 mi
7:53 am73 °FPassing clouds.6 mph84%29.80 "Hg10 mi
6:53 am71 °FClear.7 mph90%29.80 "Hg10 mi
5:53 am71 °FPassing clouds.9 mph90%29.77 "Hg10 mi
4:53 am71 °FClear.8 mph87%29.75 "Hg10 mi
3:53 am71 °FPassing clouds.7 mph87%29.75 "Hg10 mi
2:53 am70 °FPassing clouds.7 mph87%29.74 "Hg10 mi
1:53 am71 °FClear.6 mph87%29.75 "Hg10 mi
12:53 am71 °FClear.7 mph87%29.75 "Hg10 mi
Weather by CustomWeather, © 2017

See weather overviewHow to use our weather pages